Lid_Strength_Index
2 2 3 6 9 11 13 12 10 11 10 10 9 9 9 10 9 10 5 6 6 5 3 -0 -2 -2 -2 -2 -1 -2 -2 -2 -2 -2 -2 -2 -2 -2 -1 -1 -1 -1 -1 -2 -2 -2 -2 -2 -2
3 3 5 9 12 14 13 12 11 10 10 10 10 10 10 10 9 8 7 7 7 6 4 0 -2 -2 -2 -0 -0 -0 -1 -1 -2 -2 -2 -2 -2 -2 -2 -2 -1 -1 -2 -2 -2 -2 -2 -2 -2
4 5 7 11 14 14 13 11 11 11 10 10 10 10 10 10 9 9 8 8 8 7 5 2 0 0 -0 -1 0 0 -0 -1 -1 -1 -1 -2 -2 -2 -2 -2 -2 -2 -2 -2 -2 -2 -2 -2 -2
5 6 10 12 12 12 11 11 11 11 10 10 10 11 10 9 9 8 9 9 9 8 6 3 2 2 1 1 1 0 -0 -1 -1 -1 -1 -1 -1 -1 -1 -1 -1 -2 -2 -2 -2 -2 -2 -2 -2
8 9 12 13 12 11 11 11 11 11 10 10 10 11 11 10 10 10 10 10 10 10 8 5 4 3 2 2 2 2 2 2 2 1 1 0 -1 1 1 1 0 0 -0 -1 -2 -2 -2 -1 -2
9 10 13 14 13 11 11 10 11 11 11 11 11 12 11 9 11 11 11 11 10 10 9 8 6 5 4 4 3 3 3 3 3 3 3 2 2 3 3 2 2 1 1 1 -0 -1 -1 -2 -1
10 12 13 14 14 12 11 11 11 11 11 11 11 12 11 11 10 11 11 11 11 11 10 10 9 8 7 6 5 5 5 5 4 4 5 5 5 5 5 4 3 3 2 2 0 -0 0 0 -1
11 11 14 14 14 13 11 11 11 11 11 11 10 12 12 11 11 11 11 12 11 11 12 11 11 10 10 9 7 7 6 6 6 6 6 6 7 6 7 6 5 4 3 3 1 2 2 3 3
9 12 14 13 14 12 12 11 12 12 12 12 12 12 12 11 12 13 13 13 12 12 12 12 12 11 11 11 10 9 9 8 8 8 7 8 8 8 8 8 7 5 5 4 3 4 4 4 5
11 13 12 12 12 12 12 11 12 12 13 13 14 13 13 12 13 14 14 14 14 13 13 12 12 12 11 12 11 11 11 11 10 10 9 9 9 9 9 9 9 7 7 6 5 5 5 6 6
11 13 11 11 11 11 11 12 12 12 13 12 13 14 13 13 14 14 15 14 14 14 14 13 13 12 12 12 12 12 11 11 11 11 10 10 10 10 10 10 10 9 8 8 7 7 7 7 6
12 11 11 10 10 11 11 12 12 13 11 11 12 13 13 14 14 15 15 15 15 14 14 14 13 13 13 12 12 12 12 12 12 11 11 11 11 11 11 11 11 10 10 9 8 8 7 7 7
12 12 11 10 11 11 11 11 11 13 12 13 14 14 14 14 15 15 14 14 15 15 14 14 13 13 13 13 13 13 13 12 12 12 11 11 12 12 12 12 12 11 10 10 10 9 8 8 8
12 11 11 11 11 11 12 12 12 12 14 14 15 14 14 14 15 15 16 15 15 15 15 14 14 13 13 13 13 13 13 13 12 12 12 12 12 13 13 13 13 12 11 12 11 10 9 9 8
12 13 12 12 12 12 12 13 13 12 14 15 15 15 15 15 15 15 15 15 15 15 15 14 14 14 14 14 13 13 13 13 13 13 13 13 13 14 14 14 14 13 13 13 12 11 10 9 8
13 14 15 13 12 12 12 14 12 13 15 14 15 16 15 15 15 15 15 16 16 15 15 14 13 14 14 14 14 14 13 14 14 14 14 14 14 14 14 14 14 14 14 13 13 13 12 11 10
14 15 15 14 13 13 13 14 12 14 15 14 15 16 16 15 16 15 15 16 16 15 15 15 14 14 14 14 14 14 14 14 15 15 15 14 15 15 15 15 15 14 14 14 14 14 13 13 12
16 16 16 16 14 14 15 15 12 13 15 14 14 15 16 16 15 15 16 16 16 16 16 15 15 14 14 14 15 15 15 15 15 15 15 15 15 15 16 15 15 15 15 15 14 14 13 13 12
15 15 15 15 14 15 15 15 13 11 14 14 15 16 15 15 14 16 16 16 17 16 16 16 16 15 15 15 16 16 17 16 16 16 15 16 16 15 16 16 15 15 16 16 15 14 14 13 12
15 16 16 15 15 16 16 16 13 13 12 11 12 14 15 15 17 17 16 17 17 17 16 16 16 16 15 16 16 16 17 17 16 16 16 16 16 16 16 16 16 16 16 16 15 15 15 15 13
16 16 17 16 16 16 18 18 17 15 14 13 13 13 14 15 16 17 17 17 17 17 17 17 16 16 16 16 16 17 17 17 18 17 17 17 16 16 16 16 16 16 16 16 15 15 16 16 15
16 15 16 17 17 19 17 19 18 15 14 14 13 15 14 15 15 16 17 18 17 17 17 17 17 17 16 17 17 18 19 19 18 18 17 17 17 17 16 16 16 16 16 16 15 15 16 16 17
15 16 16 17 18 20 20 21 18 19 17 14 13 14 15 15 16 17 17 17 17 17 17 17 17 17 17 17 17 18 19 19 18 19 19 18 17 17 17 17 16 16 16 16 15 16 16 16 16
15 17 17 20 20 23 18 19 20 19 17 15 14 14 15 16 16 16 16 16 17 17 17 18 18 18 18 18 18 19 19 20 20 20 20 19 19 18 18 17 16 16 16 16 16 16 16 16 15
16 16 19 21 23 21 22 23 18 17 16 15 14 14 15 16 17 18 17 18 17 18 18 18 18 19 18 18 19 19 20 20 21 20 20 20 20 19 19 18 17 17 16 16 16 16 16 15 15
17 15 18 23 24 20 24 23 18 17 14 16 16 16 17 17 18 18 18 18 17 18 18 18 18 19 19 19 19 20 20 20 21 21 21 21 21 20 19 18 18 17 17 17 17 16 15 15 14
18 19 17 21 30 25 20 19 17 17 17 17 17 18 17 17 18 18 18 17 17 18 18 18 19 19 20 20 20 21 21 21 22 21 21 21 21 20 19 19 19 18 18 18 17 16 15 15 15
18 17 19 19 23 26 21 19 18 17 16 15 16 16 16 17 19 19 18 18 18 18 18 19 19 20 20 20 21 21 22 22 22 22 22 22 21 21 20 20 19 19 18 17 17 16 16 16 15
19 19 19 17 19 22 23 19 18 16 15 15 14 15 16 17 19 19 18 18 18 19 19 20 20 20 21 21 22 22 22 22 22 22 22 22 22 21 21 21 20 20 19 18 18 17 17 17 16
18 17 16 19 20 21 21 19 16 16 15 15 14 15 16 17 19 19 19 19 19 19 20 20 21 21 21 22 22 23 23 23 23 23 23 22 22 22 22 21 21 20 20 19 19 19 18 18 18